Regional Weather Roundup
Issued by NWS

Home | Current Version | Previous Version | Text Only | Print | Product List | Glossary Off
Versions: 1 2 3 4 5 6 7 8 9 10 11 12 13 14 15 16 17 18 19 20 21 22 23 24 25 26 27 28 29 30 31 32 33 34 35 36 37 38 39 40 41 42 43 44 45 46 47 48 49 50

000
ASUS44 KMEG 281510
RWRTN
TENNESSEE HOURLY STATE WEATHER ROUNDUP
NATIONAL WEATHER SERVICE MEMPHIS TN
1000 AM CDT TUE JUL 28 2015

TNZ002-004-019-021-049-052-054-088>092-281600-
WEST TENNESSEE

CITY           SKY/WX    TMP DP  RH WIND       PRES   REMARKS
MEMPHIS INTL   MOSUNNY   91  74  57 SW5       30.01S HX 100
NWS MEMPHIS      N/A     89 N/A N/A MISG        N/A
JACKSON        SUNNY     91  77  63 SW9       30.01S HX 104
DYERSBURG        N/A    N/A N/A N/A MISG        N/A
PARIS          SUNNY     88  75  66 VRB5      30.02R HX  97
LEXINGTON      SUNNY     90  77  66 SW7       30.01S HX 102
$$

TNZ008-025-027-028-033-062-065-066-281600-
NORTH MIDDLE TENNESSEE

CITY           SKY/WX    TMP DP  RH WIND       PRES   REMARKS
NASHVILLE      MOSUNNY   89  77  67 VRB3      30.01F HX 101
CLARKSVILLE    MOSUNNY   88  76  67 VRB3      30.00S HX  99
SMYRNA         MOSUNNY   93  78  61 SW6       30.02F HX 108
COOKEVILLE     SUNNY     90  79  70 W5        30.03F HX 105
CROSSVILLE     MOSUNNY   84  72  67 CALM      30.09F
$$

TNZ061-075-076-078-094-096-097-281600-
SOUTH MIDDLE TENNESSEE

CITY           SKY/WX    TMP DP  RH WIND       PRES   REMARKS
FAYETTEVILLE   SUNNY     88  73  62 VRB3      30.04F HX  96
TULLAHOMA      MOSUNNY   88  73  62 CALM      30.05F HX  96
WINCHESTER     MOSUNNY   90  73  58 CALM      30.04F HX  98
MCMINNVILLE    SUNNY     88  79  74 CALM      30.04F HX 102
COLUMBIA       SUNNY     91  79  66 VRB6      30.01S HX 107
SHELBYVILLE    SUNNY     91  79  66 CALM      30.04S HX 107
$$

TNZ017-018-042-046-047-281600-
NORTHEAST TENNESSEE

CITY           SKY/WX    TMP DP  RH WIND       PRES   REMARKS
TRI CITIES     MOSUNNY   81  71  71 S5        30.06F
ELIZABETHTON   SUNNY     82  72  69 S3        30.07F
$$

TNZ012-013-036-069-073-074-281600-
CENTRAL EAST TENNESSEE

CITY           SKY/WX    TMP DP  RH WIND       PRES   REMARKS
KNOXVILLE      MOSUNNY   85  74  69 VRB3      30.03F HX  92
OAK RIDGE      SUNNY     85  73  67 CALM      30.05S HX  91
GATLINBURG       N/A     86  72  62 SW6       30.03S VSB 1/4 HX  92
MORRISTOWN     SUNNY     82  73  74 CALM      30.06S
$$

TNZ083-085-099-281600-
SOUTHEAST TENNESSEE

CITY           SKY/WX    TMP DP  RH WIND       PRES   REMARKS
CHATTANOOGA    MOSUNNY   86  74  67 CALM      30.03F HX  94
$$

SKY/WX REPORTED AS FAIR MEANS FEW OR NO CLOUDS BELOW
12 THOUSAND FEET.



USA.gov is the U.S. government's official web portal to all federal, state and local government web resources and services.